Location: Unspecified
(40.2720°N, 0.0000°E)
Time: 16:44:22
(UTC+00:00)

ARIANE 1 DEB - Visible Passes

Search period start: 04 April 2026 00:00
Search period end: 14 April 2026 00:00
Orbit: 780 x 871 km, 98.4° (Epoch: 27 March)

Date Brightness Start Highest point End Pass type
(mag) Time Alt. Az. Time Alt. Az. Time Alt. Az.
4 Apr ? 19:02:57 10° SSW 19:07:43 30° W 19:12:34 10° NW visible
7 Apr ? 19:49:08 10° WSW 19:51:03 12° W 19:52:58 10° WNW visible
8 Apr ? 19:27:58 10° SW 19:31:40 18° W 19:35:26 10° NW visible
9 Apr ? 19:07:44 10° SSW 19:12:21 27° W 19:17:03 10° NW visible
12 Apr ? 19:54:58 10° W 19:55:43 10° W 19:56:27 10° W visible
13 Apr ? 19:32:56 10° SW 19:36:19 16° W 19:39:44 10° NW visible
